DECAYED

STARLINK-4518, 53550 (Decayed)

Orbit data source: Space-Track

STARLINK-4518, 53550 was a payload satellite owned by SpaceX/Seattle (US) in LEO that was launched on Fri, 19 Aug 2022 UTC via an FALCON 9 launch vehicle from the Air Force Eastern Test Range (AFETR). Payload-class satellites include a variety of spacecraft equipped with specific instruments for various scientific and technological missions. These include communications satellites like Starlink; space stations such as the ISS; scientific satellites like the Hubble; Earth observation satellites from companies like Planet Labs, Umbra, and HawkEye 360; GPS; miniature CubeSats for education and research; and military/defense satellites.

Not visible in the next 10 days
Identifier
53550, 2022-101Z
Orbit
Decayed
Country
Flag of USUS
Related business
Manufacturer
SpaceX/Seattle
Mission
Decayed Commercial Communications
Bus & Motor
STARLINK, Unknown motor
Mass
300 kg wet, ~290 kg dry
Launch date (UTC)
2022-08-19 (4 years ago)
Launch vehicle
FALCON 9
Launch site
Air Force Eastern Test Range (AFETR)
Object type
Payload
Rocket body
Debris
Shape & HBR
Box + 1 Pan, 10.1 m
Radar Cross Section
13.562 m², Large (>1 m²)

Expand to show TLE details & history
Last TLE update: 4 months ago

TLE from 4 months ago
0 STARLINK-4518
1 53550U 22101Z   26038.82753975  .06506647  12306-4  62622-3 0  9990
2 53550  53.2002 174.8226 0005344 288.9680  71.0788 16.37628913192794
Epoch: 2026-02-07T19:51Z
TLE epoch observation values (Epoch: 2026-02-07T19:51:39.434Z)
Latitude
-0.00004°
Longitude
98.96279°
Altitude
171.93 km
Speed
7.805 km/s
True Right ascension
11h 39m 17s
True Declination
0° 00' 00"
Sunlit
Object was in full shadow at epoch
Visualization orbit readout
Latitude
Unknown
Longitude
Unknown
Altitude
Unknown
Speed
Unknown
Apparent Right ascension
Unknown
Apparent Declination
Unknown
Sunlit
N/A
Visualization observer readout
Local Sidereal Time
21:26:57
Azimuth
Unknown
Elevation
Unknown
Doppler factor
Unknown
Orbital elements
Apogee altitude
175.879 km
Perigee altitude
168.878 km
Semi-major axis
6,550.516 km
Eccentricity
0.00053
Inclination
53.2002°
RAAN
174.8226°
Arg. of periapsis
288.968°
True anomaly
71.13674°
Mean anomaly
71.0788°
Eccentric anomaly
71.10777°
Mean motion
4.09383 °/min
Orbital period
87.94 mins
BSTAR
0.00062622
Loading maneuver chart data...
Computing Atmospheric mass density...
Loading historical data...
Loading historical data...
Loading historical data...
Loading historical data...
Loading historical data...
Loading historical data...
Loading historical data...

Documentation

Showing up to 5 results
|